FW0538 Weather Reports


Display with metric or nautical units.
time (UTC)temp
F
wind
direction
speed
MPH
gust
MPH
rain 1hr
in
rain 24hr
in
rain mn
in
humidity
%
barometer
mb
20260510101553 54 25 1.0 3.0 0.00 0.00 0.00 39 1012.4
20260510100054 55 15 1.0 3.0 0.00 0.00 0.00 37 1012.2
20260510094553 54 27 0.0 2.0 0.00 0.00 0.00 37 1012.3
20260510093048 57 20 2.0 3.0 0.00 0.00 0.00 34 1012.2
20260510091542 60 6 0.0 1.0 0.00 0.00 0.00 30 1012.3
20260510090042 59 6 0.0 0.0 0.00 0.00 0.00 31 1012.2
20260510084556 57 6 0.0 2.0 0.00 0.00 0.00 36 1012.3
20260510083049 56 15 0.0 3.0 0.00 0.00 0.00 35 1012.1
20260510081541 56 338 0.0 4.0 0.00 0.00 0.00 37 1012.3
20260510080035 56 1 2.0 4.0 0.00 0.00 0.00 36 1012.3
20260510074536 57 354 1.0 4.0 0.00 0.00 0.00 35 1012.4
20260510073045 58 14 2.0 4.0 0.00 0.00 0.00 35 1012.4
20260510071530 59 20 2.0 4.0 0.00 0.00 0.00 33 1012.5
20260510070026 61 11 1.0 3.0 0.00 0.00 0.00 30 1012.3
20260510064524 61 321 0.0 2.0 0.00 0.00 0.00 28 1012.4
20260510063024 61 1 1.0 3.0 0.00 0.00 0.00 30 1012.4
20260510061523 62 347 2.0 3.0 0.00 0.00 0.00 26 1012.4
20260510060034 64 360 2.0 3.0 0.00 0.00 0.00 24 1012.3
20260510054522 64 353 1.0 3.0 0.00 0.00 0.00 23 1012.2
20260510053021 64 349 0.0 3.0 0.00 0.00 0.00 23 1012.3
20260510051521 64 349 2.0 4.0 0.00 0.00 0.00 24 1012.3
20260510050021 65 311 3.0 5.0 0.00 0.00 0.00 24 1012.1
20260510044520 64 317 2.0 5.0 0.00 0.00 0.00 26 1012.0
20260510043020 65 317 1.0 6.0 0.00 0.00 0.00 26 1012.0
20260510041522 67 306 1.0 6.0 0.00 0.00 0.00 24 1011.8
20260510040019 67 352 0.0 3.0 0.00 0.00 0.00 23 1011.5
20260510034518 69 12 0.0 3.0 0.00 0.00 0.00 22 1011.3
20260510033017 71 18 1.0 7.0 0.00 0.00 0.00 20 1011.1
20260510031517 71 34 1.0 6.0 0.00 0.00 0.00 20 1010.8
20260510030016 72 34 1.0 8.0 0.00 0.00 0.00 20 1010.7
20260510024520 74 30 1.0 6.0 0.00 0.00 0.00 20 1010.5
20260510023015 76 34 2.0 6.0 0.00 0.00 0.00 19 1010.5
20260510021515 77 38 1.0 6.0 0.00 0.00 0.00 18 1010.4
20260510020013 79 33 3.0 5.0 0.00 0.00 0.00 15 1010.3
20260510014513 79 167 0.0 5.0 0.00 0.00 0.00 15 1010.5
20260510013011 81 112 0.0 3.0 0.00 0.00 0.00 12 1010.7
20260510011510 82 79 0.0 2.0 0.00 0.00 0.00 12 1010.8
20260510010009 81 114 0.0 7.0 0.00 0.00 0.00 13 1010.9
20260510004508 81 195 1.0 7.0 0.00 0.00 0.00 13 1010.8
20260510003009 82 85 1.0 5.0 0.00 0.00 0.00 14 1010.8
20260510001507 81 112 2.0 8.0 0.00 0.00 0.00 13 1010.9
20260510000006 82 175 0.0 5.0 0.00 0.00 0.00 15 1011.0
20260509234503 81 79 3.0 7.0 0.00 0.00 0.00 14 1010.9
20260509233002 80 70 2.0 7.0 0.00 0.00 0.00 14 1010.9
20260509231603 80 117 3.0 9.0 0.00 0.00 0.00 16 1011.1
20260509230057 82 18 3.0 11.0 0.00 0.00 0.00 16 1011.1
20260509224553 81 124 2.0 9.0 0.00 0.00 0.00 18 1011.4
20260509223052 80 295 1.0 6.0 0.00 0.00 0.00 17 1011.7
20260509221548 80 164 0.0 6.0 0.00 0.00 0.00 19 1012.2
20260509220052 79 124 2.0 13.0 0.00 0.00 0.00 20 1012.2
20260509214546 80 166 4.0 10.0 0.00 0.00 0.00 17 1012.3
20260509213044 80 81 2.0 9.0 0.00 0.00 0.00 18 1012.4
20260509211546 77 77 1.0 8.0 0.00 0.00 0.00 20 1012.4
20260509210041 77 63 1.0 8.0 0.00 0.00 0.00 18 1012.6
20260509204538 77 20 2.0 12.0 0.00 0.00 0.00 21 1013.0
20260509203036 77 141 1.0 6.0 0.00 0.00 0.00 21 1013.1
20260509201534 76 153 6.0 17.0 0.00 0.00 0.00 21 1013.1
20260509200037 77 147 2.0 9.0 0.00 0.00 0.00 23 1013.4
20260509194531 76 65 1.0 6.0 0.00 0.00 0.00 22 1013.7
20260509193030 74 225 1.0 11.0 0.00 0.00 0.00 24 1013.9
20260509191529 74 86 5.0 11.0 0.00 0.00 0.00 23 1014.0
20260509190029 75 90 3.0 10.0 0.00 0.00 0.00 21 1014.1
20260509184536 75 115 2.0 8.0 0.00 0.00 0.00 23 1014.2
20260509183023 72 143 1.0 10.0 0.00 0.00 0.00 27 1014.4
20260509181522 72 91 0.0 7.0 0.00 0.00 0.00 28 1014.7
20260509180022 71 73 1.0 9.0 0.00 0.00 0.00 28 1014.7
20260509174519 70 108 1.0 11.0 0.00 0.00 0.00 30 1014.9
20260509173018 70 74 2.0 9.0 0.00 0.00 0.00 29 1014.8
20260509171514 69 131 0.0 5.0 0.00 0.00 0.00 31 1014.9
20260509170012 68 239 0.0 5.0 0.00 0.00 0.00 32 1015.1
20260509164510 67 216 0.0 5.0 0.00 0.00 0.00 34 1015.0
20260509163009 66 110 0.0 5.0 0.00 0.00 0.00 34 1015.0
20260509161507 66 85 0.0 2.0 0.00 0.00 0.00 35 1015.2
20260509160005 63 52 0.0 3.0 0.00 0.00 0.00 38 1015.1
20260509154502 63 18 0.0 3.0 0.00 0.00 0.00 40 1015.2
20260509153101 62 18 0.0 3.0 0.00 0.00 0.00 40 1015.2
20260509151558 61 19 0.0 3.0 0.00 0.00 0.00 42 1015.3
20260509150055 59 12 2.0 4.0 0.00 0.00 0.00 47 1015.3
20260509144549 57 26 0.0 2.0 0.00 0.00 0.00 48 1015.2
20260509143052 55 358 1.0 4.0 0.00 0.00 0.00 54 1015.2
20260509141555 54 20 2.0 5.0 0.00 0.00 0.00 58 1015.2
20260509140054 52 30 1.0 3.0 0.00 0.00 0.00 61 1015.0
20260509134543 51 15 1.0 4.0 0.00 0.00 0.00 62 1014.8
20260509133042 50 22 2.0 4.0 0.00 0.00 0.00 63 1014.7
20260509131542 50 18 0.0 2.0 0.00 0.00 0.00 62 1014.6
20260509130043 50 31 2.0 5.0 0.00 0.00 0.00 62 1014.5
20260509124540 50 344 2.0 5.0 0.00 0.00 0.00 62 1014.4
20260509123045 50 343 3.0 5.0 0.00 0.00 0.00 59 1014.4
20260509121531 51 349 3.0 6.0 0.00 0.00 0.00 59 1014.3
20260509120028 51 4 2.0 5.0 0.00 0.00 0.00 61 1014.2
20260509114527 52 349 2.0 5.0 0.00 0.00 0.00 60 1014.2
20260509113026 52 3 1.0 5.0 0.00 0.00 0.00 61 1014.3
20260509111539 52 360 4.0 6.0 0.00 0.00 0.00 62 1014.2
20260509110022 53 34 3.0 6.0 0.00 0.00 0.00 61 1014.0
20260509104529 52 346 3.0 5.0 0.00 0.00 0.00 62 1014.2
20260509103020 53 349 3.0 5.0 0.00 0.00 0.00 62 1014.0